| time (UTC) | temp F | wind direction | speed MPH | gust MPH | rain 1hr in | rain 24hr in | rain mn in | humidity % | barometer mb |
| 20260506062435 | 45 | 19 | 6.0 | 8.0 | 0.00 | 0.00 | 0.00 | 81 | 1013.1 |
| 20260506061535 | 46 | 18 | 6.0 | 11.0 | 0.00 | 0.00 | 0.00 | 80 | 1013.1 |
| 20260506060848 | 46 | 13 | 6.0 | 11.0 | 0.00 | 0.00 | 0.00 | 80 | 1013.1 |
| 20260506051235 | 47 | 337 | 6.0 | 12.0 | 0.00 | 0.00 | 0.00 | 78 | 1013.0 |
| 20260506050545 | 47 | 340 | 8.0 | 13.0 | 0.00 | 0.00 | 0.00 | 78 | 1012.9 |
| 20260506044535 | 49 | 308 | 11.0 | 15.0 | 0.00 | 0.00 | 0.00 | 68 | 1012.6 |
| 20260506043635 | 50 | 308 | 11.0 | 16.0 | 0.00 | 0.00 | 0.00 | 69 | 1012.6 |
| 20260506042735 | 51 | 301 | 8.0 | 13.0 | 0.00 | 0.00 | 0.00 | 66 | 1012.8 |
| 20260506041835 | 50 | 298 | 8.0 | 14.0 | 0.00 | 0.00 | 0.00 | 65 | 1012.4 |
| 20260506040935 | 50 | 232 | 5.0 | 7.0 | 0.00 | 0.00 | 0.00 | 64 | 1012.0 |
| 20260506040036 | 50 | 220 | 5.0 | 8.0 | 0.00 | 0.00 | 0.00 | 65 | 1012.0 |
| 20260506035135 | 49 | 200 | 7.0 | 10.0 | 0.00 | 0.00 | 0.00 | 65 | 1011.7 |
| 20260506034446 | 49 | 219 | 5.0 | 8.0 | 0.00 | 0.00 | 0.00 | 63 | 1011.5 |
| 20260506033548 | 50 | 298 | 0.0 | 3.0 | 0.00 | 0.00 | 0.00 | 60 | 1011.3 |
| 20260506032435 | 51 | 298 | 1.0 | 4.0 | 0.00 | 0.00 | 0.00 | 60 | 1011.4 |
| 20260506031748 | 51 | 298 | 0.0 | 4.0 | 0.00 | 0.00 | 0.00 | 60 | 1011.2 |
| 20260506030635 | 52 | 278 | 1.0 | 4.0 | 0.00 | 0.00 | 0.00 | 59 | 1011.2 |
| 20260506025735 | 52 | 247 | 2.0 | 3.0 | 0.00 | 0.00 | 0.00 | 59 | 1011.3 |
| 20260506024835 | 52 | 247 | 3.0 | 5.0 | 0.00 | 0.00 | 0.00 | 58 | 1011.1 |
| 20260506024147 | 53 | 243 | 5.0 | 7.0 | 0.00 | 0.00 | 0.00 | 57 | 1011.0 |
| 20260506023038 | 54 | 244 | 6.0 | 14.0 | 0.00 | 0.00 | 0.00 | 56 | 1010.9 |
| 20260506022135 | 53 | 220 | 8.0 | 14.0 | 0.00 | 0.00 | 0.00 | 58 | 1011.0 |
| 20260506021235 | 53 | 289 | 6.0 | 10.0 | 0.00 | 0.00 | 0.00 | 57 | 1010.7 |
| 20260506020546 | 53 | 304 | 8.0 | 11.0 | 0.00 | 0.00 | 0.00 | 57 | 1010.4 |
| 20260506015435 | 53 | 309 | 8.0 | 11.0 | 0.00 | 0.00 | 0.00 | 55 | 1010.0 |
| 20260506014536 | 54 | 302 | 8.0 | 11.0 | 0.00 | 0.00 | 0.00 | 53 | 1009.7 |
| 20260506013635 | 56 | 305 | 8.0 | 13.0 | 0.00 | 0.00 | 0.00 | 51 | 1009.3 |
| 20260506012736 | 57 | 295 | 10.0 | 14.0 | 0.00 | 0.00 | 0.00 | 49 | 1009.3 |
| 20260506011835 | 58 | 288 | 11.0 | 14.0 | 0.00 | 0.00 | 0.00 | 48 | 1009.4 |
| 20260506010935 | 59 | 291 | 12.0 | 17.0 | 0.00 | 0.00 | 0.00 | 47 | 1009.3 |
| 20260506010035 | 59 | 284 | 12.0 | 16.0 | 0.00 | 0.00 | 0.00 | 47 | 1009.4 |
| 20260506005135 | 59 | 283 | 12.0 | 17.0 | 0.00 | 0.00 | 0.00 | 47 | 1009.4 |
| 20260506004235 | 59 | 286 | 13.0 | 18.0 | 0.00 | 0.00 | 0.00 | 47 | 1009.3 |
| 20260506003335 | 59 | 289 | 11.0 | 15.0 | 0.00 | 0.00 | 0.00 | 47 | 1009.2 |
| 20260506002440 | 59 | 288 | 11.0 | 15.0 | 0.00 | 0.00 | 0.00 | 49 | 1009.3 |
| 20260506001535 | 59 | 285 | 11.0 | 17.0 | 0.00 | 0.00 | 0.00 | 50 | 1009.2 |
| 20260506000635 | 59 | 295 | 15.0 | 20.0 | 0.00 | 0.00 | 0.00 | 49 | 1009.1 |
| 20260505235735 | 60 | 304 | 18.0 | 23.0 | 0.00 | 0.00 | 0.00 | 48 | 1009.0 |
| 20260505235047 | 60 | 294 | 17.0 | 23.0 | 0.00 | 0.00 | 0.00 | 48 | 1009.1 |
| 20260505233935 | 60 | 293 | 18.0 | 25.0 | 0.00 | 0.00 | 0.00 | 50 | 1008.9 |
| 20260505233035 | 60 | 294 | 15.0 | 22.0 | 0.00 | 0.00 | 0.00 | 49 | 1008.8 |
| 20260505232135 | 60 | 303 | 17.0 | 24.0 | 0.00 | 0.00 | 0.00 | 50 | 1008.9 |
| 20260505231235 | 60 | 306 | 18.0 | 24.0 | 0.00 | 0.00 | 0.00 | 53 | 1008.8 |
| 20260505230335 | 60 | 300 | 20.0 | 26.0 | 0.00 | 0.00 | 0.00 | 49 | 1008.9 |
| 20260505225435 | 60 | 310 | 20.0 | 27.0 | 0.00 | 0.00 | 0.00 | 51 | 1008.9 |
| 20260505224535 | 60 | 307 | 21.0 | 29.0 | 0.00 | 0.00 | 0.00 | 52 | 1009.2 |
| 20260505223635 | 60 | 306 | 25.0 | 31.0 | 0.00 | 0.00 | 0.00 | 51 | 1009.5 |
| 20260505222735 | 61 | 305 | 22.0 | 31.0 | 0.00 | 0.00 | 0.00 | 46 | 1009.5 |
| 20260505221835 | 62 | 294 | 16.0 | 26.0 | 0.00 | 0.00 | 0.00 | 47 | 1009.0 |
| 20260505220935 | 62 | 298 | 15.0 | 21.0 | 0.00 | 0.00 | 0.00 | 46 | 1009.1 |
| 20260505220035 | 62 | 323 | 15.0 | 21.0 | 0.00 | 0.00 | 0.00 | 43 | 1009.0 |
| 20260505215135 | 63 | 324 | 17.0 | 23.0 | 0.00 | 0.00 | 0.00 | 43 | 1009.0 |
| 20260505214235 | 62 | 327 | 20.0 | 28.0 | 0.00 | 0.00 | 0.00 | 44 | 1009.1 |
| 20260505213335 | 62 | 320 | 24.0 | 32.0 | 0.00 | 0.00 | 0.00 | 43 | 1009.3 |
| 20260505212435 | 64 | 299 | 22.0 | 28.0 | 0.00 | 0.00 | 0.00 | 39 | 1009.6 |
| 20260505211535 | 61 | 290 | 25.0 | 34.0 | 0.00 | 0.00 | 0.00 | 41 | 1009.5 |
| 20260505210635 | 60 | 278 | 23.0 | 34.0 | 0.00 | 0.00 | 0.00 | 43 | 1010.0 |
| 20260505205735 | 62 | 291 | 21.0 | 29.0 | 0.00 | 0.00 | 0.00 | 41 | 1009.7 |
| 20260505204835 | 62 | 276 | 14.0 | 21.0 | 0.00 | 0.00 | 0.00 | 50 | 1009.8 |
| 20260505203935 | 62 | 279 | 15.0 | 21.0 | 0.00 | 0.00 | 0.00 | 50 | 1009.9 |
| 20260505203035 | 62 | 288 | 18.0 | 26.0 | 0.00 | 0.00 | 0.00 | 50 | 1009.9 |
| 20260505202135 | 63 | 289 | 17.0 | 26.0 | 0.00 | 0.00 | 0.00 | 50 | 1009.7 |
| 20260505201235 | 61 | 252 | 17.0 | 31.0 | 0.00 | 0.00 | 0.00 | 48 | 1009.9 |
| 20260505200335 | 62 | 242 | 19.0 | 31.0 | 0.00 | 0.00 | 0.00 | 44 | 1010.0 |
| 20260505195647 | 63 | 221 | 20.0 | 30.0 | 0.00 | 0.00 | 0.00 | 44 | 1010.0 |
| 20260505194535 | 63 | 222 | 20.0 | 31.0 | 0.00 | 0.00 | 0.00 | 45 | 1010.2 |
| 20260505193635 | 61 | 219 | 20.0 | 28.0 | 0.00 | 0.00 | 0.00 | 49 | 1010.2 |
| 20260505192735 | 63 | 216 | 21.0 | 27.0 | 0.00 | 0.00 | 0.00 | 47 | 1010.4 |
| 20260505192047 | 62 | 213 | 20.0 | 29.0 | 0.00 | 0.00 | 0.00 | 49 | 1010.4 |
| 20260505191149 | 62 | 227 | 21.0 | 29.0 | 0.00 | 0.00 | 0.00 | 51 | 1010.5 |
| 20260505190035 | 60 | 220 | 21.0 | 31.0 | 0.00 | 0.00 | 0.00 | 52 | 1010.8 |
| 20260505185135 | 60 | 217 | 23.0 | 33.0 | 0.00 | 0.00 | 0.00 | 52 | 1010.8 |
| 20260505184235 | 61 | 214 | 22.0 | 32.0 | 0.00 | 0.00 | 0.00 | 53 | 1010.8 |
| 20260505183335 | 61 | 221 | 21.0 | 31.0 | 0.00 | 0.00 | 0.00 | 53 | 1010.9 |
| 20260505182435 | 60 | 218 | 16.0 | 26.0 | 0.00 | 0.00 | 0.00 | 56 | 1011.1 |
| 20260505181535 | 58 | 217 | 16.0 | 24.0 | 0.00 | 0.00 | 0.00 | 59 | 1011.2 |
| 20260505180635 | 58 | 208 | 14.0 | 23.0 | 0.00 | 0.00 | 0.00 | 61 | 1011.4 |
| 20260505175735 | 57 | 210 | 13.0 | 20.0 | 0.00 | 0.00 | 0.00 | 63 | 1011.5 |
| 20260505175045 | 56 | 222 | 12.0 | 19.0 | 0.00 | 0.00 | 0.00 | 64 | 1011.7 |
| 20260505173935 | 55 | 236 | 10.0 | 15.0 | 0.00 | 0.00 | 0.00 | 62 | 1011.9 |
| 20260505173035 | 54 | 220 | 9.0 | 12.0 | 0.00 | 0.00 | 0.00 | 66 | 1011.7 |
| 20260505172135 | 54 | 214 | 9.0 | 13.0 | 0.00 | 0.00 | 0.00 | 67 | 1011.8 |
| 20260505171235 | 54 | 219 | 9.0 | 15.0 | 0.00 | 0.00 | 0.00 | 69 | 1012.1 |
| 20260505170335 | 53 | 218 | 9.0 | 13.0 | 0.00 | 0.00 | 0.00 | 74 | 1012.0 |
| 20260505165435 | 53 | 222 | 8.0 | 11.0 | 0.00 | 0.00 | 0.00 | 76 | 1012.1 |
| 20260505164535 | 52 | 218 | 10.0 | 13.0 | 0.00 | 0.00 | 0.00 | 78 | 1012.0 |
| 20260505163635 | 52 | 222 | 11.0 | 15.0 | 0.00 | 0.00 | 0.00 | 77 | 1012.1 |
| 20260505162735 | 52 | 244 | 7.0 | 15.0 | 0.00 | 0.00 | 0.00 | 76 | 1012.4 |
| 20260505161835 | 52 | 287 | 6.0 | 8.0 | 0.00 | 0.00 | 0.00 | 73 | 1012.3 |
| 20260505160935 | 52 | 292 | 7.0 | 10.0 | 0.00 | 0.00 | 0.00 | 71 | 1012.3 |
| 20260505153335 | 53 | 291 | 9.0 | 13.0 | 0.00 | 0.00 | 0.00 | 66 | 1011.9 |
| 20260505152648 | 53 | 286 | 10.0 | 15.0 | 0.00 | 0.00 | 0.00 | 64 | 1011.9 |
| 20260505151535 | 54 | 289 | 11.0 | 14.0 | 0.00 | 0.00 | 0.00 | 60 | 1012.2 |
| 20260505150635 | 54 | 296 | 13.0 | 16.0 | 0.00 | 0.00 | 0.00 | 59 | 1012.2 |
| 20260505140335 | 56 | 255 | 5.0 | 8.0 | 0.00 | 0.00 | 0.00 | 48 | 1012.3 |
| 20260505124235 | 53 | 263 | 3.0 | 5.0 | 0.00 | 0.00 | 0.00 | 56 | 1011.7 |
| 20260505123335 | 53 | 272 | 5.0 | 9.0 | 0.00 | 0.00 | 0.00 | 54 | 1011.5 |
| 20260505122435 | 54 | 283 | 9.0 | 14.0 | 0.00 | 0.00 | 0.00 | 53 | 1011.3 |
| 20260505121535 | 54 | 281 | 9.0 | 14.0 | 0.00 | 0.00 | 0.00 | 53 | 1011.5 |
| 20260505120635 | 53 | 254 | 6.0 | 8.0 | 0.00 | 0.00 | 0.00 | 55 | 1011.7 |
| 20260505115947 | 53 | 250 | 7.0 | 8.0 | 0.00 | 0.00 | 0.00 | 56 | 1011.7 |
| 20260505114835 | 53 | 269 | 6.0 | 10.0 | 0.00 | 0.00 | 0.00 | 55 | 1011.6 |
| 20260505113935 | 53 | 282 | 7.0 | 10.0 | 0.00 | 0.00 | 0.00 | 56 | 1011.5 |
| 20260505113035 | 53 | 291 | 7.0 | 10.0 | 0.00 | 0.00 | 0.00 | 55 | 1011.6 |
| 20260505112346 | 54 | 277 | 8.0 | 12.0 | 0.00 | 0.00 | 0.00 | 55 | 1011.6 |
| 20260505111235 | 54 | 277 | 9.0 | 16.0 | 0.00 | 0.00 | 0.00 | 54 | 1011.5 |
| 20260505110335 | 54 | 280 | 11.0 | 16.0 | 0.00 | 0.00 | 0.00 | 53 | 1011.5 |
| 20260505101835 | 56 | 280 | 8.0 | 15.0 | 0.00 | 0.00 | 0.00 | 42 | 1011.5 |
| 20260505100935 | 56 | 267 | 6.0 | 10.0 | 0.00 | 0.00 | 0.00 | 42 | 1011.3 |
| 20260505100035 | 56 | 262 | 6.0 | 9.0 | 0.00 | 0.00 | 0.00 | 41 | 1011.4 |
| 20260505095135 | 56 | 275 | 5.0 | 9.0 | 0.00 | 0.00 | 0.00 | 41 | 1011.3 |
| 20260505094235 | 56 | 281 | 11.0 | 16.0 | 0.00 | 0.00 | 0.00 | 39 | 1011.1 |
| 20260505093335 | 57 | 278 | 13.0 | 17.0 | 0.00 | 0.00 | 0.00 | 39 | 1010.8 |
| 20260505092435 | 57 | 279 | 13.0 | 18.0 | 0.00 | 0.00 | 0.00 | 39 | 1010.9 |
| 20260505091535 | 57 | 270 | 12.0 | 17.0 | 0.00 | 0.00 | 0.00 | 38 | 1010.8 |
| 20260505090635 | 58 | 274 | 13.0 | 19.0 | 0.00 | 0.00 | 0.00 | 38 | 1011.1 |
| 20260505084833 | 58 | 281 | 14.0 | 21.0 | 0.00 | 0.00 | 0.00 | 38 | 1011.1 |
| 20260505084143 | 58 | 284 | 10.0 | 16.0 | 0.00 | 0.00 | 0.00 | 38 | 1011.2 |
| 20260505083033 | 58 | 289 | 10.0 | 16.0 | 0.00 | 0.00 | 0.00 | 37 | 1011.6 |
| 20260505082133 | 58 | 292 | 15.0 | 21.0 | 0.00 | 0.00 | 0.00 | 36 | 1011.6 |
| 20260505081233 | 59 | 288 | 18.0 | 24.0 | 0.00 | 0.00 | 0.00 | 36 | 1011.5 |
| 20260505080333 | 59 | 286 | 17.0 | 26.0 | 0.00 | 0.00 | 0.00 | 35 | 1011.3 |
| 20260505075433 | 59 | 289 | 14.0 | 21.0 | 0.00 | 0.00 | 0.00 | 36 | 1011.5 |
| 20260505074533 | 58 | 302 | 9.0 | 18.0 | 0.00 | 0.00 | 0.00 | 36 | 1011.3 |
| 20260505073633 | 58 | 293 | 11.0 | 15.0 | 0.00 | 0.00 | 0.00 | 37 | 1011.6 |
| 20260505072733 | 59 | 281 | 14.0 | 17.0 | 0.00 | 0.00 | 0.00 | 37 | 1011.5 |
| 20260505071834 | 59 | 284 | 16.0 | 21.0 | 0.00 | 0.00 | 0.00 | 36 | 1011.5 |
| 20260505070933 | 59 | 286 | 16.0 | 21.0 | 0.00 | 0.00 | 0.00 | 36 | 1011.6 |
| 20260505070033 | 59 | 286 | 14.0 | 20.0 | 0.00 | 0.00 | 0.00 | 36 | 1011.5 |